Retour au catalogue

STARLINK-35881

ActifCommunicationsVLEO
NORAD 66830·PAYLOAD·🇺🇸 United States

Lancé Dec 2, 2025 depuis Vandenberg Space Force Base

Loading…

Prochains Passages (prochaines 24 heures)

TLE

FraisSource: CelesTrak SupGP

Époque: Sep 15, 2026, 02:45 UTC

1 66830C 25280K   26258.11506944 -.00019605  00000+0 -16431-2 0  2580
2 66830  70.0010 217.0119 0002835 273.9600 167.5144 14.98337057    15

Suivez STARLINK-35881 en temps réel avec AllMySat

Download on the App Store